Location: Budapest
(47.4979°N, 19.0402°E)
Time: 23:18:03
(UTC+02:00)

Vanguard 2 Rocket - Visible Passes

Search period start: 23 April 2018 00:00
Search period end: 03 May 2018 00:00
Orbit: 553 x 3328 km, 32.9° (Epoch: 22 April)

Date Brightness Start Highest point End Pass type
(mag) Time Alt. Az. Time Alt. Az. Time Alt. Az.
23 Apr 10.4 01:59:12 10° SSE 02:05:19 14° SE 02:12:39 10° ESE visible
23 Apr 10.2 04:04:59 12° SSW 04:18:41 35° SSE 04:35:34 10° E visible
24 Apr 10.1 03:08:39 16° S 03:18:06 28° SE 03:33:05 10° E visible
25 Apr 10.1 02:12:16 16° SSE 02:18:01 20° SE 02:29:34 10° E visible
25 Apr 10.0 04:18:03 12° SW 04:31:54 41° SSE 04:49:47 10° E visible
26 Apr 10.3 01:15:52 11° SE 01:18:23 12° SE 01:23:34 10° ESE visible
26 Apr 9.8 03:21:38 19° SSW 03:31:07 34° SSE 03:47:37 10° E visible
27 Apr 9.8 02:25:12 21° S 02:30:52 26° SE 02:44:47 10° E visible
27 Apr 9.9 04:30:59 11° SW 04:45:16 46° SSE 05:03:48 10° E visible
28 Apr 10.0 01:28:44 17° SE 01:31:07 18° SE 01:40:56 10° E visible
28 Apr 9.7 03:34:31 20° SSW 03:44:21 40° SSE 04:01:47 10° E visible
29 Apr 9.5 02:38:03 25° S 02:43:56 33° SSE 02:59:16 10° E visible
29 Apr 9.8 04:44:14 10° WSW 04:58:47 49° S 05:17:37 10° ESE visible
30 Apr 9.6 01:41:33 23° SSE 01:44:01 24° SE 01:56:12 10° E visible
30 Apr 9.6 03:47:20 18° SW 03:57:46 44° SSE 04:15:43 10° E visible
01 May 10.0 00:45:04 16° SE 00:45:04 16° SE 00:52:06 10° ESE visible
01 May 9.3 02:50:50 26° SSW 02:57:11 38° SSE 03:13:24 10° E visible
02 May 9.3 01:54:20 28° SSE 01:57:07 30° SSE 02:10:42 10° E visible
02 May 9.6 04:00:07 15° SW 04:11:20 47° S 04:29:28 10° ESE visible
